Temp
-5 -5 -5 -6 -6 -6 -6 -6 -6 -6 -6 -6 -6 -6 -6 -7 -6 -6 -6 -6 -7 -7 -6 -6 -6 -6 -7 -7 -7 -7 -7 -7 -8 -8 -8 -8 -8 -9 -9 -9 -9 -9 -9
-5 -5 -5 -6 -6 -6 -6 -6 -6 -6 -7 -6 -6 -6 -6 -7 -7 -6 -7 -7 -6 -6 -6 -6 -7 -7 -7 -7 -7 -7 -7 -7 -7 -8 -8 -8 -9 -9 -9 -9 -9 -9 -9
-5 -5 -6 -5 -6 -6 -6 -6 -6 -6 -6 -6 -6 -6 -6 -7 -7 -7 -6 -6 -6 -6 -6 -6 -7 -7 -7 -7 -7 -7 -8 -8 -8 -8 -8 -8 -9 -9 -8 -9 -9 -9 -9
-5 -5 -6 -6 -6 -6 -6 -6 -6 -6 -6 -6 -7 -7 -6 -6 -6 -6 -6 -6 -6 -6 -6 -6 -7 -7 -7 -7 -7 -7 -8 -8 -8 -8 -8 -8 -8 -9 -9 -9 -9 -9 -9
-6 -6 -6 -6 -6 -6 -7 -6 -6 -6 -6 -6 -6 -6 -6 -6 -6 -7 -6 -6 -6 -6 -6 -6 -7 -7 -7 -7 -7 -7 -7 -8 -8 -8 -8 -8 -8 -9 -9 -9 -9 -9 -9
-6 -6 -6 -6 -6 -6 -7 -7 -7 -6 -6 -6 -6 -6 -6 -6 -6 -6 -6 -6 -6 -6 -6 -6 -7 -7 -7 -7 -7 -7 -8 -8 -8 -8 -8 -8 -8 -9 -9 -9 -9 -10 -10
-6 -6 -6 -6 -7 -6 -6 -7 -6 -6 -6 -6 -6 -6 -6 -6 -7 -7 -7 -6 -6 -6 -6 -6 -7 -7 -7 -7 -7 -7 -7 -8 -8 -8 -8 -8 -8 -9 -9 -9 -9 -9 -10
-6 -6 -6 -6 -7 -7 -7 -6 -6 -6 -6 -5 -6 -6 -6 -6 -7 -7 -6 -6 -6 -6 -6 -6 -6 -7 -7 -7 -7 -7 -7 -8 -8 -8 -8 -8 -8 -9 -9 -9 -9 -9 -10
-6 -6 -7 -7 -7 -7 -7 -6 -6 -6 -6 -5 -6 -6 -6 -6 -6 -6 -6 -6 -6 -6 -6 -6 -6 -6 -6 -7 -7 -7 -7 -7 -8 -8 -8 -8 -8 -8 -8 -9 -9 -9 -9
-7 -7 -7 -7 -7 -7 -7 -7 -7 -6 -6 -6 -6 -6 -6 -5 -5 -5 -6 -6 -6 -6 -6 -6 -6 -7 -6 -7 -7 -7 -7 -8 -8 -8 -8 -8 -8 -8 -8 -9 -9 -9 -9
-7 -7 -7 -7 -7 -7 -7 -7 -7 -6 -6 -7 -7 -6 -6 -6 -5 -5 -6 -6 -5 -6 -6 -6 -6 -6 -7 -7 -7 -7 -7 -8 -7 -8 -8 -8 -8 -9 -8 -8 -8 -9 -9
-7 -7 -7 -7 -7 -7 -7 -7 -7 -7 -7 -7 -7 -6 -6 -5 -5 -5 -6 -6 -5 -5 -6 -6 -6 -6 -6 -6 -6 -7 -7 -7 -7 -8 -8 -8 -9 -8 -8 -8 -8 -8 -9
-7 -7 -7 -7 -7 -7 -7 -7 -7 -6 -6 -6 -6 -6 -6 -6 -6 -6 -6 -5 -6 -6 -6 -6 -6 -6 -6 -6 -6 -6 -7 -7 -7 -7 -7 -8 -9 -8 -8 -8 -8 -8 -8
-7 -7 -7 -7 -7 -7 -7 -7 -7 -6 -6 -7 -7 -7 -6 -7 -7 -6 -6 -6 -6 -6 -6 -6 -6 -6 -6 -6 -6 -6 -7 -7 -7 -7 -7 -7 -7 -8 -8 -8 -8 -8 -8
-7 -7 -7 -8 -7 -7 -7 -7 -7 -7 -6 -7 -7 -7 -7 -7 -6 -6 -6 -6 -6 -6 -6 -6 -6 -6 -6 -6 -6 -6 -6 -7 -7 -7 -7 -7 -7 -7 -8 -8 -8 -8 -8
-7 -7 -7 -8 -7 -8 -8 -7 -7 -7 -7 -6 -6 -6 -6 -7 -7 -7 -6 -6 -6 -6 -6 -6 -6 -6 -6 -6 -6 -5 -6 -6 -7 -7 -7 -7 -7 -7 -7 -8 -8 -8 -8
-7 -6 -7 -7 -7 -7 -7 -7 -7 -7 -6 -6 -6 -6 -6 -6 -6 -6 -6 -6 -6 -6 -6 -6 -6 -6 -6 -6 -6 -6 -6 -6 -6 -6 -6 -7 -7 -7 -7 -8 -7 -8 -8
-7 -6 -7 -7 -7 -7 -7 -8 -8 -8 -7 -7 -7 -7 -6 -6 -6 -6 -6 -6 -6 -6 -6 -6 -6 -6 -6 -6 -6 -6 -6 -6 -5 -6 -6 -6 -6 -7 -7 -7 -7 -7 -8
-7 -7 -7 -8 -8 -7 -7 -8 -8 -8 -8 -7 -7 -6 -6 -6 -7 -6 -6 -6 -6 -6 -6 -6 -6 -6 -6 -6 -6 -6 -6 -6 -6 -5 -6 -6 -6 -6 -7 -7 -7 -7 -7
-7 -8 -8 -8 -8 -7 -8 -8 -8 -7 -7 -8 -7 -7 -6 -6 -7 -7 -6 -6 -6 -6 -6 -6 -6 -6 -6 -6 -6 -6 -6 -6 -6 -6 -6 -6 -6 -6 -6 -7 -7 -7 -7
-6 -7 -8 -8 -8 -8 -8 -7 -7 -8 -7 -7 -7 -7 -7 -7 -7 -7 -6 -5 -5 -6 -6 -6 -5 -6 -6 -6 -6 -6 -6 -6 -6 -6 -6 -6 -6 -6 -6 -6 -7 -7 -7
-6 -7 -7 -7 -7 -7 -7 -7 -7 -8 -8 -8 -8 -8 -8 -7 -7 -7 -7 -6 -5 -6 -6 -6 -6 -6 -6 -5 -6 -6 -6 -6 -6 -6 -6 -6 -6 -6 -6 -6 -6 -7 -7
-6 -6 -7 -7 -6 -6 -7 -7 -7 -8 -8 -8 -8 -8 -8 -7 -7 -7 -7 -7 -7 -7 -7 -6 -6 -6 -6 -5 -5 -5 -6 -6 -6 -6 -6 -6 -6 -6 -6 -5 -5 -6 -6
-6 -6 -6 -6 -7 -7 -7 -7 -7 -7 -7 -7 -7 -6 -6 -7 -7 -7 -7 -7 -7 -7 -6 -6 -6 -6 -6 -6 -6 -5 -5 -5 -5 -6 -6 -6 -6 -6 -6 -6 -5 -5 -6
-6 -6 -6 -6 -7 -7 -7 -7 -7 -7 -6 -6 -7 -6 -6 -6 -7 -7 -6 -6 -6 -6 -6 -6 -6 -6 -6 -6 -5 -5 -5 -5 -5 -6 -6 -6 -6 -6 -6 -6 -7 -6 -6
-6 -6 -6 -6 -6 -6 -7 -7 -7 -7 -7 -7 -7 -6 -6 -6 -6 -6 -6 -6 -6 -6 -6 -6 -6 -6 -6 -5 -5 -5 -5 -5 -5 -6 -6 -5 -5 -6 -6 -6 -6 -6 -6
Height
5887 5887 5886 5886 5884 5883 5883 5883 5885 5886 5887 5887 5888 5888 5889 5889 5888 5888 5889 5889 5890 5890 5891 5891 5891 5891 5890 5888 5887 5886 5886 5886 5885 5885 5885 5885 5885 5885 5885 5885 5885 5885 5886
5888 5887 5887 5887 5886 5885 5885 5886 5887 5888 5888 5888 5890 5891 5891 5891 5890 5890 5890 5890 5892 5893 5893 5893 5893 5892 5891 5890 5889 5889 5888 5888 5887 5887 5886 5886 5887 5886 5886 5886 5885 5885 5885
5890 5889 5888 5888 5887 5887 5888 5889 5890 5890 5890 5891 5892 5893 5893 5893 5891 5891 5891 5892 5894 5895 5895 5894 5894 5894 5893 5892 5891 5891 5890 5889 5889 5888 5887 5887 5887 5888 5887 5886 5886 5886 5885
5891 5890 5890 5889 5889 5889 5889 5889 5890 5891 5892 5892 5893 5893 5893 5893 5892 5891 5892 5893 5895 5895 5895 5896 5895 5894 5894 5894 5894 5892 5890 5889 5889 5889 5889 5889 5889 5888 5888 5887 5886 5885 5886
5892 5892 5892 5891 5891 5891 5891 5891 5892 5892 5893 5893 5893 5893 5893 5893 5893 5894 5894 5894 5895 5896 5896 5896 5896 5895 5894 5895 5894 5893 5892 5891 5891 5890 5890 5890 5890 5890 5890 5889 5888 5887 5887
5893 5893 5892 5893 5893 5892 5892 5892 5893 5894 5894 5894 5895 5894 5895 5894 5894 5894 5894 5895 5896 5896 5896 5896 5896 5895 5895 5895 5894 5894 5893 5892 5892 5891 5891 5891 5891 5891 5891 5891 5890 5889 5888
5895 5895 5893 5893 5893 5893 5893 5894 5895 5895 5896 5896 5896 5897 5897 5896 5895 5895 5896 5896 5895 5895 5895 5895 5896 5895 5895 5895 5895 5895 5894 5894 5893 5893 5892 5892 5892 5892 5892 5892 5891 5890 5889
5896 5896 5894 5894 5894 5895 5895 5896 5897 5897 5897 5897 5897 5897 5897 5897 5897 5896 5896 5896 5896 5896 5895 5895 5895 5895 5895 5894 5894 5895 5896 5895 5895 5894 5893 5893 5893 5893 5892 5892 5892 5890 5890
5896 5896 5896 5896 5896 5896 5897 5898 5898 5898 5899 5898 5898 5898 5898 5897 5897 5897 5896 5896 5897 5897 5896 5896 5895 5895 5895 5895 5894 5895 5895 5895 5895 5895 5894 5893 5893 5894 5893 5893 5893 5891 5890
5895 5895 5897 5897 5897 5898 5899 5899 5899 5900 5900 5899 5898 5897 5896 5896 5897 5897 5896 5896 5896 5897 5897 5897 5897 5897 5897 5897 5896 5895 5895 5895 5895 5895 5894 5894 5894 5893 5893 5893 5893 5892 5891
5894 5895 5897 5897 5898 5898 5898 5899 5900 5900 5899 5898 5897 5897 5896 5895 5896 5896 5896 5896 5896 5896 5897 5897 5896 5897 5896 5897 5896 5895 5895 5895 5894 5894 5894 5894 5893 5893 5893 5893 5892 5892 5891
5894 5895 5896 5897 5897 5898 5898 5899 5899 5899 5898 5898 5897 5897 5897 5895 5895 5896 5897 5896 5897 5896 5896 5896 5895 5895 5895 5896 5896 5896 5895 5895 5895 5895 5894 5894 5892 5891 5891 5892 5892 5891 5891
5894 5895 5896 5896 5896 5897 5897 5898 5898 5898 5898 5898 5898 5897 5897 5895 5892 5895 5896 5896 5896 5897 5896 5895 5895 5895 5895 5895 5894 5895 5894 5894 5894 5894 5894 5893 5891 5889 5889 5890 5890 5890 5891
5893 5894 5894 5895 5895 5896 5896 5897 5898 5898 5898 5899 5899 5898 5896 5895 5895 5895 5895 5895 5896 5897 5897 5896 5895 5895 5894 5893 5892 5892 5892 5892 5891 5892 5891 5891 5890 5889 5889 5889 5889 5888 5889
5891 5892 5891 5892 5894 5895 5896 5897 5897 5897 5898 5898 5899 5899 5899 5898 5897 5897 5896 5896 5897 5896 5896 5896 5895 5896 5894 5892 5891 5890 5890 5890 5890 5889 5888 5889 5888 5887 5887 5887 5888 5888 5888
5888 5890 5891 5891 5892 5893 5896 5897 5897 5896 5897 5899 5899 5900 5900 5899 5898 5897 5897 5897 5896 5896 5896 5895 5895 5895 5894 5892 5889 5888 5888 5888 5888 5887 5887 5886 5886 5886 5886 5885 5886 5886 5886
5886 5886 5888 5890 5892 5893 5894 5895 5895 5895 5896 5898 5899 5899 5899 5898 5897 5896 5896 5897 5896 5894 5895 5895 5894 5893 5892 5890 5889 5887 5886 5886 5885 5885 5886 5884 5884 5884 5885 5883 5884 5884 5884
5885 5882 5885 5889 5891 5891 5893 5893 5895 5895 5896 5897 5898 5897 5897 5897 5895 5894 5895 5895 5895 5894 5893 5891 5891 5891 5890 5888 5887 5885 5884 5882 5881 5883 5883 5882 5882 5882 5882 5881 5881 5880 5880
5887 5886 5888 5891 5893 5892 5892 5895 5896 5897 5897 5896 5895 5896 5896 5896 5893 5893 5894 5893 5892 5893 5891 5890 5887 5889 5888 5886 5884 5883 5882 5881 5880 5880 5880 5880 5880 5880 5879 5879 5879 5879 5878
5890 5891 5892 5893 5894 5892 5893 5896 5898 5897 5897 5895 5894 5893 5894 5893 5891 5890 5890 5890 5889 5890 5888 5887 5887 5887 5885 5884 5881 5881 5879 5879 5878 5878 5878 5878 5878 5878 5877 5877 5877 5877 5876
5894 5892 5894 5895 5895 5895 5895 5896 5893 5893 5894 5893 5893 5891 5890 5890 5888 5887 5886 5887 5885 5887 5888 5886 5886 5885 5883 5881 5879 5878 5877 5876 5875 5874 5875 5875 5875 5876 5875 5875 5874 5874 5873
5895 5896 5895 5894 5895 5895 5895 5894 5893 5893 5893 5892 5892 5892 5891 5889 5887 5885 5883 5881 5881 5884 5885 5884 5884 5883 5881 5877 5876 5875 5875 5873 5872 5871 5871 5871 5872 5872 5872 5872 5872 5872 5872
5899 5899 5896 5894 5894 5894 5895 5895 5893 5894 5893 5893 5894 5893 5891 5889 5887 5884 5882 5880 5880 5881 5882 5882 5880 5881 5877 5873 5872 5872 5871 5869 5867 5868 5867 5866 5867 5868 5867 5868 5869 5870 5870
5902 5902 5899 5896 5895 5896 5897 5896 5896 5896 5896 5894 5893 5891 5889 5888 5886 5883 5881 5880 5879 5879 5879 5878 5878 5877 5876 5872 5870 5868 5867 5866 5864 5864 5863 5862 5862 5864 5864 5865 5865 5866 5867
5904 5903 5901 5900 5899 5898 5899 5897 5897 5897 5896 5895 5893 5889 5887 5886 5884 5883 5881 5880 5879 5878 5877 5876 5876 5876 5874 5872 5869 5866 5864 5862 5861 5860 5859 5859 5857 5860 5860 5861 5861 5861 5862
5903 5904 5902 5901 5900 5898 5897 5896 5896 5896 5894 5893 5892 5890 5887 5885 5884 5883 5881 5880 5879 5878 5878 5877 5876 5875 5872 5869 5867 5865 5862 5860 5858 5857 5855 5853 5852 5853 5853 5854 5855 5855 5854
Wind_Speed
13 13 13 12 14 15 14 14 12 12 11 11 11 11 11 12 12 13 12 11 10 11 12 9 8 7 8 8 9 8 9 9 9 10 10 8 7 6 7 6 7 8 8
11 13 12 12 16 16 16 14 12 12 11 13 10 7 8 8 11 13 13 12 11 10 9 9 8 8 8 8 8 7 7 9 9 10 10 10 7 6 4 5 5 6 6
9 12 11 12 15 17 16 15 15 14 13 11 11 9 8 8 9 12 12 11 10 8 7 8 8 8 7 9 8 7 7 7 13 10 9 8 7 5 5 6 5 5 5
8 11 10 12 13 15 16 15 15 14 14 13 11 12 13 10 9 9 9 6 6 7 6 6 8 8 8 8 7 7 7 8 10 9 8 7 8 7 6 5 4 6 5
8 11 10 11 11 12 13 14 15 14 13 14 14 14 14 13 11 8 7 6 5 6 6 3 4 5 7 6 6 7 7 6 6 7 7 6 7 7 7 5 5 4 3
7 10 10 10 10 10 11 13 13 13 12 13 13 14 14 13 12 10 8 7 7 7 8 7 6 5 6 6 5 6 7 6 5 6 6 6 5 5 5 6 6 4 1
4 7 8 8 9 9 10 11 11 10 11 10 11 11 10 11 11 11 9 7 7 8 8 9 9 8 7 7 6 6 7 7 6 5 5 5 5 3 3 4 6 5 3
1 4 6 6 7 8 9 8 7 7 7 6 6 6 7 7 6 7 8 8 7 7 6 7 7 8 9 7 6 5 5 6 7 7 5 4 4 4 2 3 4 5 4
2 3 4 5 6 7 7 6 6 5 4 4 3 3 4 5 5 5 5 7 8 8 7 6 6 6 8 8 7 5 6 7 8 7 2 5 3 3 2 2 2 2 4
2 4 5 4 4 5 4 3 4 5 5 5 3 3 3 3 3 3 4 6 4 6 7 7 6 7 7 6 6 6 5 5 6 6 6 6 4 3 3 0 1 3 2
3 4 5 5 5 5 4 4 4 4 3 5 3 3 4 5 2 1 2 2 2 3 6 7 7 7 6 6 5 6 7 7 9 6 7 6 6 6 3 2 0 1 3
2 4 6 5 6 6 5 5 4 3 2 0 3 4 7 7 7 3 1 0 1 3 4 6 6 6 7 6 6 5 6 7 8 6 8 7 10 8 1 3 3 1 2
5 6 7 6 7 8 7 7 6 5 2 2 3 6 7 7 4 8 3 2 3 5 6 7 8 7 7 8 8 6 6 7 8 7 7 6 11 7 4 4 4 3 3
9 9 8 8 7 6 6 6 6 5 3 5 5 4 8 8 7 8 1 1 3 7 8 8 8 10 9 10 9 8 8 8 9 10 10 8 10 8 6 6 5 4 4
10 10 10 9 8 6 5 5 4 6 3 7 8 4 6 5 3 6 5 3 6 7 6 8 9 10 9 11 10 10 10 9 10 11 11 13 10 10 6 5 8 7 6
2 7 8 8 10 8 6 6 5 4 5 7 5 7 6 6 6 5 4 5 8 9 9 8 6 6 7 9 9 9 10 11 11 13 13 12 10 9 9 8 7 9 8
8 3 7 8 7 8 6 6 6 5 6 5 7 7 6 8 6 7 7 7 9 8 10 10 9 7 8 8 9 11 12 11 13 13 14 14 11 10 12 10 11 8 11
3 6 11 7 6 5 5 7 8 9 7 6 8 10 8 9 10 9 10 10 11 13 11 13 12 11 11 12 10 12 16 15 12 12 13 14 13 12 11 10 11 11 10
10 6 6 6 9 12 9 7 7 10 9 9 12 12 13 13 13 12 11 12 13 15 16 17 11 12 14 13 14 13 15 12 10 10 12 15 13 13 12 12 12 12 11
12 15 9 6 3 7 10 8 6 6 6 10 12 15 14 14 17 18 18 17 19 18 20 11 11 15 17 17 19 20 17 12 13 13 15 14 15 13 14 14 14 12 13
14 15 12 11 9 7 5 5 5 5 6 6 9 11 11 13 15 17 21 18 19 20 14 10 13 14 20 22 21 20 15 16 18 17 14 16 17 16 14 14 14 14 14
14 13 13 12 10 7 7 7 7 5 8 3 6 6 6 10 11 15 17 16 19 17 14 14 15 18 22 19 16 16 19 20 19 17 21 17 18 15 17 14 12 14 14
11 11 13 13 14 12 10 9 10 6 4 5 3 4 6 5 8 9 10 10 8 11 14 13 12 13 17 19 18 15 18 18 21 19 17 25 20 18 21 19 15 14 15
7 8 10 11 11 10 10 8 8 7 8 6 6 7 7 8 8 8 7 6 5 6 8 8 10 11 10 13 15 14 15 15 17 18 19 22 23 23 24 23 22 22 20
3 4 6 7 7 8 7 8 8 7 7 9 8 10 10 8 7 6 6 6 6 6 7 8 9 10 10 10 11 12 12 12 15 16 17 18 16 21 21 24 28 28 25
8 5 4 8 9 9 9 8 8 8 8 7 9 10 10 10 9 9 6 6 6 7 7 8 9 9 9 11 12 12 12 10 9 11 15 14 18 21 28 24 28 30 30
Wind_Direction
67 66 67 68 72 76 81 85 89 94 103 112 119 109 92 93 105 102 93 87 84 81 80 84 86 81 82 75 74 75 80 77 67 74 74 69 71 91 97 103 118 127 139
59 68 68 65 69 74 79 86 89 94 102 96 99 114 113 114 103 96 85 71 66 74 84 88 86 83 73 71 63 67 59 66 56 70 74 74 72 89 82 83 97 118 122
57 67 69 63 69 72 79 90 91 86 89 99 108 109 113 118 105 92 79 68 62 70 85 83 82 84 75 59 56 54 57 52 62 59 65 71 75 60 60 80 98 103 102
66 65 69 66 72 72 73 79 84 85 86 90 95 90 84 78 78 78 84 83 72 66 70 83 71 66 55 52 46 46 49 67 52 54 59 61 62 52 41 43 65 74 76
78 71 76 79 78 80 81 82 82 77 78 76 74 74 72 64 61 69 70 71 67 60 50 49 69 52 36 42 41 36 30 37 40 54 51 53 55 45 34 38 71 66 99
93 78 81 87 88 93 87 84 80 69 67 72 69 68 69 70 63 58 65 71 69 57 47 41 34 29 26 26 35 19 24 18 25 37 39 32 40 51 37 31 49 41 127
99 89 84 93 89 96 84 81 84 75 70 67 70 68 64 67 70 64 58 58 60 57 54 45 39 33 37 21 21 7 11 355 4 21 23 26 11 24 51 37 65 63 87
156 96 94 92 94 106 101 95 77 71 71 73 59 53 49 58 69 63 53 46 36 34 40 45 37 30 36 32 14 359 356 342 351 347 314 340 358 342 7 47 49 73 69
178 132 118 113 107 105 116 106 72 59 60 54 42 42 35 29 30 41 52 47 38 23 11 28 33 27 35 33 7 349 330 338 338 352 343 343 334 315 326 32 12 61 61
163 143 154 149 129 119 124 102 85 73 57 41 33 25 25 9 36 41 58 46 23 4 343 345 3 4 13 24 14 357 338 317 312 331 310 304 298 298 296 97 14 353 44
182 159 172 175 168 161 153 144 129 100 80 48 5 336 4 330 316 55 44 3 356 326 329 331 335 344 346 357 3 346 335 321 318 301 296 284 293 267 285 284 162 325 334
230 214 189 175 177 183 192 194 174 161 155 170 5 353 352 326 283 234 63 39 292 325 313 309 318 320 324 330 333 336 318 311 311 318 294 284 289 258 240 296 288 285 302
253 231 206 186 179 187 199 216 224 217 234 308 2 359 6 17 284 182 140 27 344 314 300 303 305 311 312 315 311 314 304 299 309 293 294 276 287 285 264 256 263 286 288
217 212 198 196 195 190 210 216 229 250 259 303 329 353 1 39 90 171 214 197 301 300 302 304 309 317 316 307 311 311 302 300 299 300 294 286 307 286 301 262 253 241 258
204 209 195 196 198 191 221 234 237 255 290 294 292 323 338 5 22 22 222 223 286 290 305 294 303 311 296 301 308 293 296 293 287 287 294 293 301 253 288 298 249 250 234
356 216 217 206 192 190 218 231 238 256 269 258 298 325 318 324 333 323 333 267 282 277 288 279 280 311 323 317 327 304 296 297 281 275 278 279 286 280 274 263 256 235 240
283 281 197 219 212 189 196 249 258 254 271 305 332 322 313 302 306 291 278 273 262 252 250 263 276 292 311 355 333 332 326 304 284 265 269 274 278 271 278 273 271 278 241
178 141 186 200 228 232 229 230 268 280 284 304 290 289 304 295 285 272 273 272 264 258 252 259 278 294 301 309 314 324 320 319 282 251 265 269 268 265 269 273 269 276 282
71 73 174 205 246 248 225 220 233 264 279 281 283 287 281 276 293 272 273 275 271 266 265 268 266 291 292 294 290 291 291 283 293 263 259 264 263 265 265 270 270 269 270
73 78 89 110 240 242 183 199 203 238 277 279 282 275 270 264 273 281 282 266 269 267 276 283 290 288 290 289 289 289 303 275 267 267 266 267 264 268 262 255 258 258 263
79 82 86 78 74 96 148 109 43 356 300 283 281 266 271 284 277 289 288 269 262 262 271 264 291 293 290 290 285 288 282 281 269 260 257 258 260 257 263 264 262 258 256
59 67 78 88 90 77 52 55 58 43 15 25 27 336 292 298 302 301 300 289 262 250 242 278 285 294 295 304 289 280 282 274 274 282 251 259 253 254 249 250 257 260 257
49 52 69 71 69 57 41 37 50 28 325 345 358 294 301 317 319 310 295 295 247 241 254 278 288 302 313 312 307 298 282 281 278 285 275 252 245 252 243 244 247 254 252
49 43 43 49 56 49 49 35 32 17 352 355 339 334 2 11 15 4 351 334 324 295 288 295 300 307 320 330 329 313 289 282 285 279 269 265 249 247 243 244 245 248 250
321 349 21 31 31 29 11 9 359 359 354 2 338 333 333 346 353 359 357 353 333 323 316 317 321 319 327 325 340 336 310 297 288 279 284 272 263 253 253 253 252 249 253
275 287 353 2 2 3 347 338 322 317 318 323 321 328 332 322 316 320 331 335 337 332 335 331 327 333 337 346 351 354 358 333 319 336 296 288 269 257 260 257 253 253 252